weather.gov     
National Weather Service

Terminal Aerodrome Forecast
NWS Homepage
This page is being discontinued on March 12, 2014.
The same data is available at this site. Please update your bookmarks.
Thank you, and we apologize for the inconvenience.
Please send an email to SR-SRH.Webmaster@noaa.gov with any concerns.


Current Version
Previous Version:    01  02  03  04  05  06  07  08  09  10  11  12  13  14  15  16  17  18  19  20  21  22  23  24  25  26  27  
[Printable]
868
FTUS42 KILM 211700
TAFCRE
TAF
KCRE 211720Z 2118/2218 03009KT P6SM VCSH SCT035 BKN060 OVC100
     FM212000 03009KT P6SM VCSH BKN035 OVC060
     FM220100 03009KT 6SM -RA BR SCT006 BKN018 OVC040
     FM220300 04009KT 5SM -RA BR BKN006 OVC015=


U.S. Dept. of Commerce
NOAA National Weather Service
1325 East West Highway
Silver Spring, MD 20910
E-mail: w-nws.webmaster@noaa.gov
Page last modified: May 16, 2007
NATIONAL WEATHER SERVICE: for Safety, for Work, for Fun - FOR LIFE